User: anonymous   Login
Location: Arbon
(43.0005°N, 0.7472°E)
Time: 06:30:17
(UTC+00:00)
Language:

SJ 16-02 - Orbit

View from above orbital plane
View from above orbital plane
View from above satellite
View from above satellite

Ground track
Ground track

The orbit data is extracted from the following two-line orbital elements,

1 41634U 16043A   20293.78630082  .00000096  00000-0  14216-4 0  9995
2 41634  75.0051 200.2202 0007031 348.7772  11.3255 14.85720513233703
Epoch (UTC): 19 October 2020 18:52:16
Eccentricity: 0.0007031
inclination: 75.0051°
perigee height: 606 km
apogee height: 616 km
right ascension of ascending node: 200.2202°
argument of perigee: 348.7772°
revolutions per day: 14.85720513
mean anomaly at epoch: 11.3255°
orbit number at epoch: 23370

The dashed part of the orbit path shows where the satellite is in the earth's shadow,  

DLR